CW6238 Weather Reports


time (UTC)temp
C
wind
direction
speed
KPH
gust
KPH
rain 1hr
cm
rain 24hr
cm
rain mn
cm
humidity
%
barometer
mb
20260506092538 10 270 1.6 6.4 0.00 0.00 0.00 26 1009.1
20260506091519 10 270 1.6 9.7 0.00 0.00 0.00 28 1009.1
20260506090518 10 0.0 4.8 0.00 0.00 0.00 30 1009.1
20260506085600 10 270 4.8 8.0 0.00 0.00 0.00 30 1009.1
20260506084518 10 113 1.6 4.8 0.00 0.00 0.00 32 1009.0
20260506083538 10 45 1.6 6.4 0.00 0.00 0.00 34 1009.0
20260506082519 9 270 3.2 6.4 0.00 0.00 0.00 38 1009.0
20260506081518 9 248 3.2 8.0 0.00 0.00 0.00 37 1009.0
20260506080519 9 248 1.6 4.8 0.00 0.00 0.00 34 1008.8
20260506073518 8 270 4.8 9.7 0.00 0.00 0.00 35 1008.7
20260506072519 9 0.0 3.2 0.00 0.00 0.00 41 1008.7
20260506071518 8 293 1.6 4.8 0.00 0.00 0.00 41 1008.7
20260506070519 8 248 1.6 6.4 0.00 0.00 0.00 39 1008.7
20260506061520 8 0.0 3.2 0.00 0.00 0.00 49 1008.7
20260506060519 7 0.0 0.0 0.00 0.00 0.00 51 1008.6
20260506050518 6 0.0 0.0 0.00 0.00 0.00 73 1008.2
20260506044518 3 0.0 0.0 0.00 0.00 0.00 92 1008.1
20260506043559 1 0.0 0.0 0.00 0.00 0.00 94 1008.2
20260506042518 0 0.0 0.0 0.00 0.00 0.00 94 1008.0
20260506041520 -1 0.0 0.0 0.00 0.00 0.00 94 1007.9
20260506040518 -1 0.0 0.0 0.00 0.00 0.00 93 1007.9
20260506035518 -1 0.0 0.0 0.00 0.00 0.00 93 1007.8
20260506034524 -1 0.0 0.0 0.00 0.00 0.00 93 1007.7
20260506033540 -2 0.0 0.0 0.00 0.00 0.00 93 1007.5
20260506032518 -2 0.0 0.0 0.00 0.00 0.00 93 1007.5
20260506031518 -2 0.0 0.0 0.00 0.00 0.00 93 1007.4
20260506030520 -2 0.0 0.0 0.00 0.00 0.00 93 1007.3
20260506025538 -2 0.0 0.0 0.00 0.00 0.00 93 1007.2
20260506024520 -2 0.0 0.0 0.00 0.00 0.00 92 1007.2
20260506023520 -2 0.0 0.0 0.00 0.00 0.00 92 1007.2
20260506022520 -2 0.0 0.0 0.00 0.00 0.00 92 1007.2
20260506021518 -1 0.0 0.0 0.00 0.00 0.00 92 1007.1
20260506020520 -1 0.0 0.0 0.00 0.00 0.00 92 1007.0
20260506015520 -1 0.0 0.0 0.00 0.00 0.00 92 1006.9
20260506014524 -1 0.0 0.0 0.00 0.00 0.00 91 1006.8
20260506013522 -1 0.0 0.0 0.00 0.00 0.00 91 1006.8
20260506012520 -1 0.0 0.0 0.00 0.00 0.00 91 1006.7
20260506011520 -1 0.0 0.0 0.00 0.00 0.00 90 1006.6
20260506010520 -1 0.0 0.0 0.00 0.00 0.00 89 1006.5
20260506005520 -1 0.0 0.0 0.00 0.00 0.00 89 1006.4
20260506004520 -1 0.0 0.0 0.00 0.00 0.00 89 1006.3
20260506003520 0 0.0 0.0 0.00 0.00 0.00 89 1006.3
20260506002602 0 0.0 0.0 0.00 0.00 0.00 89 1006.2
20260506001520 0 0.0 0.0 0.00 0.00 0.00 88 1006.2
20260506000540 0 0.0 0.0 0.00 0.00 0.00 88 1006.1
20260505235520 0 0.0 0.0 0.00 0.00 0.00 88 1006.1
20260505234520 0 0.0 0.0 0.00 0.00 0.00 88 1006.1
20260505233520 0 0.0 0.0 0.00 0.00 0.00 88 1006.0
20260505232520 0 0.0 0.0 0.00 0.00 0.00 87 1006.0
20260505231520 0 0.0 0.0 0.00 0.00 0.00 86 1005.8
20260505230545 0 0.0 0.0 0.00 0.00 0.00 86 1005.8
20260505225540 0 0.0 0.0 0.00 0.00 0.00 85 1005.7
20260505224519 0 0.0 0.0 0.00 0.00 0.00 84 1005.8
20260505223540 1 0.0 0.0 0.00 0.00 0.00 83 1005.8
20260505222520 1 0.0 0.0 0.00 0.00 0.00 82 1005.7
20260505221520 1 0.0 0.0 0.00 0.00 0.00 82 1005.7
20260505220540 2 0.0 0.0 0.00 0.00 0.00 80 1005.6
20260505215540 2 0.0 0.0 0.00 0.00 0.00 79 1005.5
20260505214519 2 0.0 0.0 0.00 0.00 0.00 77 1005.4
20260505213520 3 0.0 0.0 0.00 0.00 0.00 75 1005.4
20260505212519 3 0.0 0.0 0.00 0.00 0.00 74 1005.3
20260505211520 3 0.0 0.0 0.00 0.00 0.00 73 1005.2
20260505210520 3 0.0 0.0 0.00 0.00 0.00 72 1005.1
20260505205540 4 0.0 0.0 0.00 0.00 0.00 72 1005.1
20260505204519 4 0.0 0.0 0.00 0.00 0.00 70 1004.9
20260505203601 5 0.0 0.0 0.00 0.00 0.00 69 1004.8
20260505202523 5 0.0 0.0 0.00 0.00 0.00 66 1004.8
20260505201519 5 0.0 0.0 0.00 0.00 0.00 62 1004.7
20260505200519 6 0.0 0.0 0.00 0.00 0.00 62 1004.6
20260505195519 5 0.0 0.0 0.00 0.00 0.00 58 1004.6
20260505194520 6 0.0 0.0 0.00 0.00 0.00 56 1004.4
20260505193520 6 0.0 0.0 0.00 0.00 0.00 54 1004.3
20260505192520 7 0.0 0.0 0.00 0.00 0.00 53 1004.2
20260505191519 7 0.0 0.0 0.00 0.00 0.00 50 1004.0
20260505190519 7 0.0 0.0 0.00 0.00 0.00 48 1004.0
20260505185519 7 0.0 0.0 0.00 0.00 0.00 47 1003.9
20260505184519 8 0.0 0.0 0.00 0.00 0.00 46 1003.9
20260505183519 8 0.0 3.2 0.00 0.00 0.00 45 1003.7
20260505182519 8 293 1.6 3.2 0.00 0.00 0.00 44 1003.7
20260505181539 8 293 1.6 4.8 0.00 0.00 0.00 44 1003.5
20260505180539 8 270 1.6 8.0 0.00 0.00 0.00 43 1003.4
20260505175519 8 293 1.6 6.4 0.00 0.00 0.00 42 1003.3
20260505174519 9 0.0 4.8 0.00 0.00 0.00 41 1003.2
20260505173519 9 293 1.6 3.2 0.00 0.00 0.00 40 1003.1
20260505172519 9 293 3.2 8.0 0.00 0.00 0.00 39 1003.0
20260505171519 9 270 1.6 4.8 0.00 0.00 0.00 40 1002.8
20260505170520 9 270 3.2 9.7 0.00 0.00 0.00 37 1002.8
20260505165520 9 270 6.4 12.9 0.00 0.00 0.00 35 1002.7
20260505164519 10 293 3.2 8.0 0.00 0.00 0.00 37 1002.7
20260505163519 10 270 6.4 11.3 0.00 0.00 0.00 36 1002.7
20260505162519 10 293 6.4 14.5 0.00 0.00 0.00 36 1002.6
20260505161519 10 293 4.8 14.5 0.00 0.00 0.00 36 1002.6
20260505160523 10 293 6.4 14.5 0.00 0.00 0.00 35 1002.6
20260505152520 11 293 6.4 19.3 0.00 0.00 0.00 33 1002.5
20260505151522 11 293 6.4 16.1 0.00 0.00 0.00 32 1002.4
20260505150519 11 270 9.7 20.9 0.00 0.00 0.00 32 1002.4
20260505140521 11 270 8.0 12.9 0.00 0.00 0.00 35 1002.3
20260505124539 10 270 9.7 14.5 0.00 0.00 0.00 35 1002.3
20260505123519 10 270 9.7 19.3 0.00 0.00 0.00 34 1002.1
20260505122521 10 270 9.7 16.1 0.00 0.00 0.00 37 1002.0
20260505121536 10 270 8.0 19.3 0.00 0.00 0.00 36 1002.1
20260505120519 10 270 9.7 19.3 0.00 0.00 0.00 34 1002.1
20260505115539 10 270 9.7 22.5 0.00 0.00 0.00 36 1002.0
20260505114518 10 270 8.0 17.7 0.00 0.00 0.00 36 1001.9
20260505113519 10 270 4.8 19.3 0.00 0.00 0.00 39 1001.9
20260505112539 10 270 11.3 20.9 0.00 0.00 0.00 38 1002.0
20260505111518 10 270 8.0 17.7 0.00 0.00 0.00 41 1002.0
20260505110520 10 293 8.0 20.9 0.00 0.00 0.00 43 1001.9
20260505101519 9 270 11.3 19.3 0.00 0.00 0.00 44 1001.8
20260505100518 9 270 8.0 16.1 0.00 0.00 0.00 45 1001.8
20260505095519 9 293 9.7 24.1 0.00 0.00 0.00 53 1001.7
20260505094604 8 270 9.7 22.5 0.00 0.00 0.00 53 1001.6
20260505093518 8 270 8.0 25.7 0.00 0.00 0.00 55 1001.7